AAL1202 MMPR-KPHX

Flight info

Callsign AAL1202
Flight time N/A
Altitude 38000
Route BOBDI1B BOBDI UT4 LMM UJ3 HMO J92 VYLLA DCT TUS DCT HOTTT PINNG1
Aircraft B738/M-SDE2E3FGHIRWXY/LB1

Departure

Time 2026-04-16 21:50
Airport Puerto Vallarta International Airport (MMPR)

Arrival

Time N/A
Airport Phoenix Sky Harbor International Airport (KPHX)
Time Latitude Longitude Altitude Speed Heading
2026-04-16 21:19 20.67920 -105.24671 28 ft 0 kts 46°
2026-04-16 21:38 20.67906 -105.24689 28 ft 4 kts 63°
2026-04-16 21:39 20.67899 -105.24716 28 ft 4 kts 95°
2026-04-16 21:39 20.67907 -105.24742 28 ft 4 kts 124°
2026-04-16 21:39 20.67924 -105.24762 28 ft 4 kts 137°
2026-04-16 21:39 20.67944 -105.24782 28 ft 4 kts 140°
2026-04-16 21:40 20.67965 -105.24800 28 ft 4 kts 142°
2026-04-16 21:40 20.67987 -105.24818 28 ft 4 kts 142°
2026-04-16 21:40 20.68007 -105.24836 28 ft 4 kts 126°
2026-04-16 21:40 20.68015 -105.24854 28 ft 3 kts 53°
2026-04-16 21:41 20.68001 -105.24871 28 ft 4 kts 47°
2026-04-16 21:41 20.67997 -105.24876 28 ft 0 kts 47°
2026-04-16 21:44 20.68000 -105.24872 28 ft 2 kts 47°
2026-04-16 21:44 20.68028 -105.24840 28 ft 10 kts 48°
2026-04-16 21:45 20.68086 -105.24772 28 ft 14 kts 46°
2026-04-16 21:45 20.68165 -105.24723 28 ft 13 kts 18°
2026-04-16 21:45 20.68250 -105.24693 28 ft 13 kts 17°
2026-04-16 21:45 20.68334 -105.24666 28 ft 12 kts 17°
2026-04-16 21:46 20.68415 -105.24640 28 ft 12 kts 17°
2026-04-16 21:46 20.68490 -105.24603 28 ft 12 kts 43°
2026-04-16 21:46 20.68545 -105.24540 28 ft 11 kts 47°
2026-04-16 21:46 20.68599 -105.24479 28 ft 11 kts 47°
2026-04-16 21:47 20.68651 -105.24419 28 ft 11 kts 48°
2026-04-16 21:47 20.68702 -105.24361 28 ft 11 kts 46°
2026-04-16 21:47 20.68751 -105.24305 28 ft 10 kts 47°
2026-04-16 21:47 20.68805 -105.24259 28 ft 10 kts 15°
2026-04-16 21:48 20.68866 -105.24284 28 ft 10 kts 321°
2026-04-16 21:48 20.68916 -105.24331 28 ft 9 kts 316°
2026-04-16 21:48 20.68917 -105.24376 28 ft 4 kts 226°
2026-04-16 21:48 20.68914 -105.24380 28 ft 1 kts 227°
2026-04-16 21:49 20.68865 -105.24436 29 ft 32 kts 227°
2026-04-16 21:49 20.68546 -105.24802 28 ft 101 kts 227°
2026-04-16 21:49 20.67934 -105.25506 31 ft 155 kts 226°
2026-04-16 21:49 20.67122 -105.26422 402 ft 170 kts 226°
2026-04-16 21:50 20.66329 -105.27321 1276 ft 168 kts 225°
2026-04-16 21:50 20.65508 -105.28249 1891 ft 175 kts 226°
2026-04-16 21:50 20.64694 -105.29222 2519 ft 178 kts 234°
2026-04-16 21:50 20.64201 -105.30448 3094 ft 184 kts 259°
2026-04-16 21:51 20.64317 -105.31843 3440 ft 203 kts 296°
2026-04-16 21:51 20.65375 -105.32867 3767 ft 217 kts 340°
2026-04-16 21:51 20.66897 -105.32968 4182 ft 222 kts 357°
2026-04-16 21:51 20.68422 -105.33243 4630 ft 223 kts 343°
2026-04-16 21:52 20.69927 -105.33657 5223 ft 222 kts 344°
2026-04-16 21:52 20.71429 -105.34086 5713 ft 225 kts 343°
2026-04-16 21:52 20.72935 -105.34546 6235 ft 226 kts 342°
2026-04-16 21:52 20.74447 -105.35028 6716 ft 227 kts 342°
2026-04-16 21:53 20.75948 -105.35525 7190 ft 230 kts 342°
2026-04-16 21:53 20.77499 -105.36051 7724 ft 231 kts 341°
2026-04-16 21:53 20.78888 -105.36530 8192 ft 232 kts 341°
2026-04-16 21:53 20.80436 -105.37066 8694 ft 236 kts 342°
2026-04-16 21:54 20.82000 -105.37614 9180 ft 238 kts 341°
2026-04-16 21:54 20.83573 -105.38166 9726 ft 238 kts 341°
2026-04-16 21:54 20.85152 -105.38724 10224 ft 241 kts 341°
2026-04-16 21:54 20.86756 -105.39282 10725 ft 244 kts 342°
2026-04-16 21:55 20.88468 -105.39613 11005 ft 261 kts 355°
2026-04-16 21:55 20.90348 -105.39714 11179 ft 282 kts 358°